Regional Weather Roundup
Issued by NWS Sioux Falls, SD

Home | Current Version | Previous Version | Graphics & Text | Print | Product List | Glossary On
Versions: 1 2 3 4 5 6 7 8 9 10 11 12 13 14 15 16 17 18 19 20 21 22 23 24 25 26 27 28 29 30 31 32 33 34 35 36 37 38 39 40 41 42 43 44 45 46 47 48 49 50
000
ASUS43 KFSD 060510
RWRFSD

WEATHER ROUNDUP FOR SE SOUTH DAKOTA/SW MINNESOTA/NW IOWA
NATIONAL WEATHER SERVICE SIOUX FALLS SD
1200 AM CDT WED MAY 06 2015

NOTE: "FAIR" INDICATES FEW OR NO CLOUDS BELOW 12,000 FEET WITH NO
SIGNIFICANT WEATHER AND OR OBSTRUCTIONS TO VISIBILITY.


SDZ038>040-050-052>070-060600-
SOUTHEAST SOUTH DAKOTA

CITY           SKY/WX    TMP DP  RH WIND       PRES   REMARKS
BROOKINGS      CLOUDY    59  57  94 SE17G23   30.00F
CHAMBERLAIN    CLOUDY    58  57  94 SE10      29.88F
HURON          PTCLDY    61  57  87 SE12      29.92F
MADISON        CLOUDY    59  59 100 SE16      29.99S
MITCHELL       MOCLDY    63  59  87 SE12      29.93F
SIOUX FALLS    CLOUDY    62  59  90 SE16      29.99S
WINNER         CLOUDY    59  56  89 SE7       29.88F FOG
YANKTON        MOCLDY    64  55  72 E7        29.93F
$$

MNZ071-072-080-081-089-090-097-098-060600-
SOUTHWEST MINNESOTA

CITY           SKY/WX    TMP DP  RH WIND       PRES   REMARKS
FAIRMONT       CLOUDY    55  52  88 SE14G20   30.07F VSB 3/4
JACKSON        DRZL/FOG  55  54  94 SE12      30.07S VSB 1/2
LUVERNE        CLOUDY    59  57  94 SE13G20   30.02S FOG
MARSHALL       CLOUDY    57  52  82 SE17      30.03S
MONTEVIDEO     CLOUDY    57  54  88 S17       30.06S
REDWOOD FALLS  CLOUDY    56  53  90 SE13      30.06F
TRACY          CLOUDY    57  56  94 SE13      30.04F FOG
WORTHINGTON    CLOUDY    55  54  94 SE14      30.05R VSB 1/2
$$

IAZ001>003-012>014-020>022-031-032-NEZ013-014-SDZ071-060600-
NORTHWEST IOWA

CITY           SKY/WX    TMP DP  RH WIND       PRES   REMARKS
CHEROKEE       CLOUDY    63  63 100 E9G16     30.01F FOG
DENISON        MOCLDY    64  61  88 E9        30.00S
ESTHERVILLE    FOG       56  56 100 SE15      30.07S VSB 1/4
LE MARS        MOCLDY    64  63  94 SE10      29.99F
ORANGE CITY    CLOUDY    61  61 100 E8        30.00F FOG
SHELDON        CLOUDY    61  61 100 SE17G23   30.01S FOG
SIOUX CITY     MOCLDY    66  57  72 SE12      29.96F
SPENCER        FOG       60  32  34 SE17      30.04F VSB 1/2
STORM LAKE     FOG       63  63 100 SE16      30.04S VSB 1/2
$$

ABBREVIATIONS USED IN REMARKS
   TC - TEMPERATURE IN CELSIUS
  WCI - WIND CHILL INDEX
   HX - HEAT INDEX
  VSB - VISIBILITY



USA.gov is the U.S. government's official web portal to all federal, state and local government web resources and services.